This is the latest recevied weather packets stored in our database for station/object IT9KWW-13. If no packets are shown the sender has not sent any weather packets the latest 1 day(s).
| Time | Temp. | Humidity | Pressure | Rain* | Wind** | Luminosity | Snow |
|---|---|---|---|---|---|---|---|
| 1777974981 | 21.67° C | 65% | 1014.9 hPa | 0 mm | 3.58 m/s, 202° | - | - |
| 1777974860 | 21.11° C | 67% | 1014.9 hPa | 0 mm | 5.36 m/s, 202° | - | - |
| 1777974740 | 21.11° C | 66% | 1014.9 hPa | 0 mm | 5.36 m/s, 202° | - | - |
| 1777974609 | 21.11° C | 67% | 1014.9 hPa | 0 mm | 3.58 m/s, 135° | - | - |
| 1777974488 | 21.11° C | 67% | 1014.9 hPa | 0 mm | 4.02 m/s, 180° | - | - |
| 1777974368 | 21.11° C | 67% | 1014.9 hPa | 0 mm | 4.92 m/s, 225° | - | - |
| 1777974249 | 21.11° C | 67% | 1014.9 hPa | 0 mm | 4.02 m/s, 202° | - | - |
| 1777974128 | 21.11° C | 67% | 1014.9 hPa | 0 mm | 3.58 m/s, 158° | - | - |
| 1777974008 | 21.11° C | 67% | 1014.9 hPa | 0 mm | 4.47 m/s, 202° | - | - |
| 1777973877 | 21.67° C | 68% | 1014.9 hPa | 0 mm | 3.58 m/s, 180° | - | - |
| 1777973756 | 21.67° C | 66% | 1014.9 hPa | 0 mm | 4.47 m/s, 180° | - | - |
| 1777973636 | 21.11° C | 68% | 1014.9 hPa | 0 mm | 4.92 m/s, 180° | - | - |
| 1777973505 | 21.11° C | 66% | 1014.9 hPa | 0 mm | 4.02 m/s, 202° | - | - |
| 1777973384 | 21.11° C | 65% | 1014.9 hPa | 0 mm | 2.68 m/s, 202° | - | - |
| 1777973264 | 21.11° C | 65% | 1014.9 hPa | 0 mm | 4.02 m/s, 180° | - | - |
| 1777973145 | 21.11° C | 66% | 1014.9 hPa | 0 mm | 4.47 m/s, 135° | - | - |
| 1777973024 | 21.11° C | 68% | 1014.9 hPa | 0 mm | 2.68 m/s, 202° | - | - |
| 1777972904 | 21.11° C | 66% | 1014.9 hPa | 0 mm | 4.47 m/s, 158° | - | - |
| 1777972773 | 21.11° C | 68% | 1014.9 hPa | 0 mm | 3.13 m/s, 158° | - | - |
| 1777972652 | 21.11° C | 67% | 1014.9 hPa | 0 mm | 4.02 m/s, 202° | - | - |
| 1777972549 | 21.11° C | 68% | 1014.9 hPa | 0 mm | 3.13 m/s, 180° | - | - |
| 1777972401 | 21.11° C | 68% | 1014.9 hPa | 0 mm | 4.92 m/s, 158° | - | - |
| 1777972280 | 21.11° C | 67% | 1014.9 hPa | 0 mm | 4.02 m/s, 202° | - | - |
| 1777972160 | 21.11° C | 68% | 1014.9 hPa | 0 mm | 4.47 m/s, 202° | - | - |
| 1777972029 | 21.11° C | 68% | 1014.9 hPa | 0 mm | 4.02 m/s, 202° | - | - |
* Rain latest hour (hover to see other rain measurements)
** Current wind speed in m/s (hover to see current wind gust speed)